Flight Track Log - Related Links

Times and Time Zones

All times are in EDT time to prevent confusion due to time zone crossing. See the N147SW flight status page for this flight to view local times or setup timezone preferences in your user account.

Time Position Orientation Groundspeed Altitude Reporting Facility
EDT Latitude Longitude Course Direction KTS MPH feet Rate Location/Type
Sat 05:57:19 PM 25.5367 -78.0194 299° West 374 430 11,700  Level Miami Center
Sat 05:58:20 PM 25.5778 -78.1006 299° West 332 382 15,100 3,025 Climbing Miami Center
Sat 05:59:20 PM 25.6186 -78.1864 298° West 319 367 17,800 2,600 Climbing Miami Center
Sat 06:00:20 PM 25.6597 -78.2697 299° West 319 367 20,300 2,450 Climbing Miami Center
Sat 06:01:00 PM 25.6771 -78.3587 301° West  Level Estimated
Sat 06:01:20 PM 25.7028 -78.3578 299° West 319 367 22,700  Level Miami Center
Sat 06:02:20 PM 25.7456 -78.4483 298° West 325 374 24,700 2,067 Climbing Miami Center
Sat 06:03:19 PM 25.7906 -78.5414 298° West 330 380 26,800 1,650 Climbing Miami Center
Sat 06:04:20 PM 25.8356 -78.6389 297° West 338 389 28,000 595 Climbing Miami Center
Sat 06:05:20 PM 25.8883 -78.7458 299° West 357 411 28,000  Level Miami Center
Sat 06:06:20 PM 25.9433 -78.8553 299° West 391 450 28,000  Level Miami Center
Sat 06:07:20 PM 25.9961 -78.9719 297° West 410 472 28,000  Level Miami Center
Sat 06:08:20 PM 26.0528 -79.0883 298° West 422 486 28,000  Level Miami Center
Sat 06:09:20 PM 26.1094 -79.2053 298° West 427 491 28,000  Level Miami Center
Sat 06:10:19 PM 26.1661 -79.3244 298° West 427 491 28,000  Level Miami Center
Sat 06:11:20 PM 26.2225 -79.4414 298° West 432 497 28,000  Level Miami Center
Sat 06:12:19 PM 26.2686 -79.5467 296° West 427 491 28,000  Level Miami Center
Sat 06:13:19 PM 26.3289 -79.6756 298° West 427 491 28,000  Level Miami Center
Sat 06:14:19 PM 26.3792 -79.7811 298° West 427 491 28,000  Level Miami Center
Sat 06:15:20 PM 26.4392 -79.9125 297° West 422 486 28,000  Level Miami Center
Sat 06:16:19 PM 26.4892 -80.0158 298° West 422 486 28,000  Level Miami Center
Sat 06:17:20 PM 26.5469 -80.1428 297° West 422 486 28,000  Level Miami Center
Sat 06:18:19 PM 26.6006 -80.2581 297° West 422 486 28,000  Level Miami Center
Sat 06:19:19 PM 26.6503 -80.3642 298° West 417 480 28,000  Level Miami Center
Sat 06:20:20 PM 26.7078 -80.4914 297° West 417 480 28,000  Level Miami Center
Sat 06:21:19 PM 26.7553 -80.5953 297° West 417 480 28,000  Level Miami Center
Sat 06:22:20 PM 26.8086 -80.7086 298° West 412 474 28,000  Level Miami Center
Sat 06:23:20 PM 26.8619 -80.8244 297° West 412 474 28,000  Level Miami Center
Sat 06:24:20 PM 26.9131 -80.9403 296° West 412 474 28,000  Level Miami Center
Sat 06:25:20 PM 26.9700 -81.0633 297° West 412 474 28,000 -504 Level Miami Center
Sat 06:26:19 PM 27.0231 -81.1794 297° West 413 475 27,000 -1,300 Descending Miami Center
Sat 06:27:20 PM 27.0717 -81.2908 296° West 419 482 25,400 -1,785 Descending Miami Center
Sat 06:28:20 PM 27.1267 -81.4097 297° West 424 488 23,400 -1,969 Descending Miami Center
Sat 06:29:31 PM 27.1872 -81.5406 298° West 430 495 21,100 -2,107 Descending Miami Center
Sat 06:30:31 PM 27.2494 -81.6783 297° West 418 481 18,800 -2,033 Descending Miami Center
Sat 06:31:32 PM 27.2939 -81.7783 297° West 412 474 17,000 -1,800 Descending Miami Center
Sat 06:32:31 PM 27.3406 -81.8856 296° West 399 459 15,200 -1,866 Descending Miami Center
Sat 06:33:31 PM 27.3889 -81.9953 296° West 394 453 13,300 -1,900 Descending Miami Center
Sat 06:34:31 PM 27.4428 -82.1144 297° West 394 453 11,400 -1,150 Descending Miami Center
Sat 06:35:31 PM 27.5083 -82.2064 309° West 389 448 11,000 -350 Descending Miami Center
Sat 06:36:31 PM 27.5739 -82.2986 309° West 379 436 10,700 -600 Descending Miami Center
Sat 06:37:31 PM 27.5658 -82.3986 265° West 336 387 9,800 -1,650 Descending Miami Center
Sat 06:38:31 PM 27.5542 -82.4825 261° West 303 349 7,400 -2,400 Descending Miami Center
Sat 06:39:31 PM 27.5428 -82.5614 261° West 277 319 5,000 -1,850 Descending Miami Center
Sat 06:40:31 PM 27.6061 -82.5975 333° Northwest 213 245 3,700 -1,100 Descending Miami Center
Sat 06:41:31 PM 27.6781 -82.6222 343° North 226 260 2,800 -800 Descending Miami Center
Sat 06:42:31 PM 27.7458 -82.6467 342° North 244 281 2,100 -500 Descending Miami Center
Sat 06:43:31 PM 27.8056 -82.6683 342° North 244 281 1,800 -467 Descending Miami Center
Sat 06:44:01 PM 27.8333 -82.6833 334° Northwest 197 227 1,400 -933 Descending Tampa TRACON
Sat 06:45:01 PM 27.8833 -82.6833 360° North 167 192 400 -1,000 Descending Tampa TRACON
Sat 06:47:00 PM 27.9000 -82.6833 344° North  Level FlightAware Approximate
Sat 06:54:00 PM 27.9100 -82.6875 340° North  Level Estimated

Login

Don't have an account? Register now (free) for customized features, flight alerts, and more!